Location: Leo
(52.0556°N, 112.3605°W)
Time: 10:40:24
(UTC+00:00)

FO-29 - Pass Details

Date: 03 December 2023
Orbit: 799 x 1322 km, 98.6° (Epoch: 01 March)

Event Time Altitude Azimuth Distance (km) Brightness Sun altitude
Rises 11:01:00 0° 14° (NNE) 4,066 13.0 -38.3°
Reaches altitude 10° 11:03:31 10° 13° (NNE) 3,159 12.4 -37.9°
Enters shadow 11:07:48 40° 8° (N) 1,780 10.8 -37.3°
